Delta Virtual Airport Information Service

Mumbai Chhatrapati Shivaji International Airport

ICAO: VABB Country: India
Latitude: 19.0887 Longitude: 72.8679
Latest Arrival : DAC1985 (NWWW-VABB) Latest Departure : DAC1985 (VABB-BIKF)


WX CaptureLIVE
Data provided by noaa.gov | Fetched at 01:24:18

METAR : VABB 300600Z 12006KT 2500 FU NSC 31/16 Q1012 NOSIG

TAF : VABB 300600Z 12006KT 2500 FU NSC 31/16 Q1012 NOSIG


Runway Data for VABB
Data provided by openaviationdata.com

Runway ID Mag Var Hdg Length Elevation Surface ILS Freq ILS Id ILS Slope
9 -1 91° 11337 ft 37 ft Asphalt 109.5 IBOM 3
14 -1 136° 9622 ft 37 ft Asphalt 110.1 IBBY 3
27 -1 271° 11337 ft 37 ft Asphalt 110.3 ISCZ 3
32 -1 316° 9622 ft 37 ft Asphalt -- -- --

Mumbai Chhatrapati Shivaji International Airport, India
Use only for reference purposes



Not for navigational purposes.